Location: Bronnegerveen
(52.9548°N, 6.8388°E)
Time: 02:30:47
(UTC+00:00)

Cosmos 1544 Rocket - Pass Details

Date: 15 June 2025
Orbit: 598 x 625 km, 82.5° (Epoch: 07 July)

Event Time Altitude Azimuth Distance (km) Brightness Sun altitude
Rises 01:57:27 0° 351° (N) 2,866 7.8 -7.5°
Reaches altitude 10° 01:59:42 10° 355° (N) 1,956 7.0 -7.4°
Maximum altitude 02:04:00 62° 76° (ENE) 681 4.1 -7.0°
Drops below altitude 10° 02:08:14 10° 158° (SSE) 1,935 5.8 -6.6°
Sets 02:10:27 0° 161° (SSE) 2,833 6.6 -6.4°
